GPS BIIF-4 (39166 NORAD) Tracking and Keplerian Element Data

This shows tracking and keplerian element data for the satellite.

Feedback or suggestion? Click here.




ElementValue
Catalog39166
NameGPS BIIF-4
Epoch Orbit3787
Epoch Day198.42290937
Epoch Year2018
RAAN24.5111
Inclination56.0199
Eccentricity0.0059136
Argument of Perigee23.8048
Mean Anonmoly336.4983
Mean Motion2.00562276
Decay Rate-8.1E-07
L11 39166U 13023A 18198.42290937 -.00000081 00000-0 00000+0 0 9996
L22 39166 56.0199 24.5111 0059136 23.8048 336.4983 2.00562276 37871

Live tracking and technical data element details for GPS BIIF-4 (NORAD 39166). GPS BIIF-4 can be tracked NOW for your location showing map with azimuth and elevation plus other details from your city location.

Track the satellite on the map from your city or location and see movement details for azimuth, elevation, latitude, longitude, range, height, and movement on the map or in text.







IsCatalogInMostPopularTable: catalog: 39166, numindb: 54
Update: records affected: 1



GetName: 39166 GPS BIIF-4

Hit Count: updated at: Thu, 19 Jul 2018 03:51:43 GMT